{"data":{"norad_id":55632,"intl_designator":"2023-021E","name":"STARLINK-5546","alt_names":[],"object_type":"PAYLOAD","status":"ACTIVE","operator":null,"country":"US","launch_date":"2023-02-17","launch_site_code":"AFWTR","launch_vehicle":null,"mission":null,"orbit_class":"UNKNOWN","rcs_meters":null,"size_class":null,"mass_kg":null,"dimensions":null,"purposes":["comms"],"wikipedia_slug":null,"has_3d_model":false,"image_url":null,"decayed_at":null,"tle_current":{"epoch":"2026-09-20T22:00:03.000096Z","epoch_age_seconds":67116,"freshness":"FRESH","line1":"1 55632U 23021E   26263.91670139  .00073752  00000+0  50019-2 0  9994","line2":"2 55632  70.0005  72.1572 0003633 314.2961  23.2363 15.06013604  5561","mean_motion":15.06013604,"eccentricity":0.0003633,"inclination_deg":70.0005,"raan_deg":72.1572,"arg_perigee_deg":314.2961,"mean_anomaly_deg":23.2363,"bstar":0.0050019,"rev_number":556,"period_min":95.616666155959,"perigee_km":545.87964976028,"apogee_km":550.91246868111,"semimajor_km":6926.5330592207,"source":"CELESTRAK","updated_at":"2026-09-21T09:00:33.279890Z"}}}